www.pogodaiklimat.ru

Погода и климат >> Архив погоды >> Россия >> Амурская область >> Усть-Нюкжа


ПОГОДА в Усть-Нюкже

  • Прогноз погоды в Усть-Нюкже
  • Монитор погоды в Усть-Нюкже

АРХИВ ПОГОДЫ в Усть-Нюкже

Время (UTC), дата Ветер
(напр.,м/с)
 
Видим.   Явления Облачность Т
(С)
Тd
(С)
f
(%)
Тe
(С)
Тes
(С)
Комфортность P
(гПа)
Po
(гПа)
Тmin
(С)
Tmax
(С)
R
(мм)
R24
(мм)
S
(см)
18 12.06 штиль 0 10 км слаб. дождь 10/10 600 м
[Frnb Ns]
+9.0 +7.3 89 +8 +8 1009.9 957.8
21 12.06 СЗ 1 50 км {дождь} 10/10 600 м
[Cb cap]
+9.5 +7.4 87 +9 +9 1011.3 959.2
00 13.06 С 1 50 км {дождь} 9/8 600 м
[Cb cap Ac cuf]
+12.3 +5.7 64 +12 +14 1011.9 960.3 +8.5 6
03 13.06 С 1 50 км 9/6 600 м
[Cb cap Ac trans]
+14.9 +3.4 46 +16 +20 1011.3 960.1
06 13.06 СВ 1 50 км 6/3 600 м
[Cb cap Ac trans Ci fib]
+18.1 +2.0 34 +19 +28 1009.8 959.3
09 13.06 С 2 50 км 5/5 600 м
[Sc diur, vesp]
+18.6 +0.7 30 +19 +21 1009.8 959.3
12 13.06 штиль 0 50 км 4/3 600 м
[Sc diur, vesp Ci fib]
+12.5 +4.7 59 +12 +12 1011.6 960.0 +18.7
15 13.06 штиль 0 50 км 6/4 600 м
[Sc Ac trans]
+7.2 +4.3 82 +6 +6 1013.4 960.8
18 13.06 штиль 0 50 км 8/4 600 м
[Cb cap Ac trans]
+6.7 +4.5 86 +6 +6 1014.6 961.9
21 13.06 штиль 0 50 км 9/8 600 м
[Cb cap Ac trans]
+6.9 +4.6 85 +6 +6 1015.7 962.9
00 14.06 штиль 0 50 км ясно +13.9 +6.0 59 +14 +24 1013.8 962.4 +6.1
03 14.06 З 2 50 км 3/3 600 м
[Cu hum]
+18.8 +3.4 36 +20 +30 1011.7 961.2
06 14.06 В 2 50 км 4/4 600 м
[Cu hum]
+21.1 +1.4 27 +21 +29 комфорт 1010.2 960.1
09 14.06 ЮЗ 1 50 км 3/3 600 м
[Cu hum]
+23.2 +1.5 24 +22 +26 комфорт 1008.8 959.1
12 14.06 штиль 0 50 км 9/4 600 м
[Sc diur, vesp Ac trans]
+16.9 +7.0 52 +17 +17 1010.0 959.3 +23.4
15 14.06 В 2 50 км 6/0
[Ac trans Ci fib]
+13.7 +5.3 57 +13 +13 1012.1 960.7
18 14.06 В 1 50 км 6/0
[Ac trans]
+12.6 +6.0 64 +13 +13 1012.5 960.9
21 14.06 В 2 50 км 4/0
[Ac trans]
+11.7 +6.4 70 +11 +12 1011.7 960.0
00 15.06 С 2 50 км 6/0
[Ac cast Ci fib]
+17.7 +8.4 54 +18 +25 1009.7 959.1 +11.6
03 15.06 Ю 3 50 км 8/0
[Ci ing]
+22.4 +7.4 38 +23 +34 комфорт 1007.0 957.4
06 15.06 Ю 2 50 км 3/0
[Ci fib]
+25.9 +7.0 30 +26 +38 жарко 1004.5 955.6
09 15.06 Ю 1 50 км 6/3 1000 м
[Cu med, cong Ac cast Ci sp]
+25.7 +7.8 32 +26 +29 жарко 1003.8 954.8
12 15.06 В 3 50 км 1/1 1000 м
[Cu med, cong]
+23.3 +8.6 39 +25 +25 комфорт 1003.9 954.5 +27.7
15 15.06 В 1 50 км ясно +18.1 +8.3 53 +19 +19 1006.3 956.0
18 15.06 СВ 1 50 км ясно +15.0 +8.0 63 +16 +16 1007.2 956.3
21 15.06 штиль 0 50 км 5/5 1000 м
[Cu hum]
+11.3 +9.0 86 +11 +11 1008.4 956.8
00 16.06 В 1 50 км 3/3 1000 м
[Cu hum]
+19.0 +9.2 53 +21 +27 комфорт 1006.4 956.3 +10.8
03 16.06 Ю 1 50 км 3/1 1000 м
[Cu hum Ci fib]
+25.2 +9.9 38 +26 +41 жарко 1003.7 954.7
06 16.06 СЗ 2 20 км гроза, ливневой дождь 10/10 600 м
[Cb calv]
+20.6 +16.0 75 +24 +24 комфорт 1002.7 953.1
09 16.06 ЮЗ 2 50 км {гроза, ливн. осадки} 6/6 600 м
[Cb cap]
+24.6 +11.5 44 +26 +28 жарко 1002.1 953.1
12 16.06 В 1 50 км {гроза, ливн. осадки} 6/3 600 м
[Sc diur, vesp Ac trans Ci fib]
+19.8 +12.8 64 +23 +23 комфорт 1004.6 954.7 +30.0 2
15 16.06 В 1 50 км 6/0
[Ac trans Ci fib]
+17.0 +11.7 71 +18 +18 1008.0 957.5
18 16.06 штиль 0 50 км 3/0
[Cc]
+11.7 +10.4 92 +11 +11 1010.9 959.3
21 16.06 З 1 50 км 1/0
[Ci fib]
+11.4 +10.5 94 +11 +12 1012.1 960.4
00 17.06 СВ 1 50 км 3/0
[Ci]
+19.1 +11.4 61 +21 +30 комфорт 1010.5 960.2 +10.9
03 17.06 ЮЗ 2 50 км ясно +24.6 +9.3 38 +25 +40 комфорт 1008.3 958.9
06 17.06 Ю 2 50 км 1/1 1000 м
[Cu hum]
+27.7 +4.0 22 +26 +38 жарко 1006.2 957.4
09 17.06 ЮЗ 1 50 км ясно +29.1 +1.5 17 +27 +32 жарко 1004.6 956.1
12 17.06 В 1 50 км ясно +21.1 +7.0 40 +22 +22 комфорт 1005.8 956.0 +29.4
15 17.06 СВ 1 50 км 3/0
[Ac trans]
+13.8 +6.9 63 +14 +14 1008.3 957.1
18 17.06 штиль 0 50 км 3/0
[Ac trans]
+10.2 +7.3 82 +10 +10 1009.7 957.9
21 17.06 штиль 0 50 км ясно +9.3 +7.7 90 +8 +10 1010.1 958.1
00 18.06 СЗ 2 50 км 1/0
[Ci fib]
+17.7 +9.8 60 +18 +26 1007.6 957.2 +8.2
03 18.06 З 2 50 км 3/0
[Ci fib]
+26.4 +5.3 26 +26 +40 жарко 1004.2 955.3
06 18.06 З 2 50 км ясно +30.0 +1.4 16 +27 +40 жарко 1001.5 953.3
09 18.06 СЗ 2 50 км ясно +30.5 +0.9 15 +28 +32 жарко 1000.1 952.1
12 18.06 С 1 20 км дым 5/0
[Ci sp]
+26.1 +3.9 24 +25 +25 комфорт 1001.4 952.6 +31.1
15 18.06 В 1 20 км дым 3/0
[Ci fib]
+17.0 +6.8 51 +18 +18 1004.5 954.1
18 18.06 СВ 1 20 км дым ясно +14.4 +7.0 61 +15 +15 1006.9 955.9
21 18.06 С 1 20 км дым ясно +12.0 +7.9 76 +12 +13 1008.5 957.0
00 19.06 СЗ 2 50 км дым ясно +19.2 +9.1 52 +21 +28 комфорт 1007.3 957.1 +11.4
03 19.06 СЗ 2 50 км дым 1/0
[Ci fib]
+27.7 +1.2 18 +26 +40 жарко 1004.6 955.9
06 19.06 С 2 20 км дым 3/3
[Cu hum Ci sp]
+29.3 +0.9 16 +27 +36 жарко 1003.4 954.9
09 19.06 В 2 20 км дым 3/3 1000 м
[Cu hum Ci sp]
+29.0 +1.5 17 +27 +30 жарко 1003.0 954.5
12 19.06 С 1 50 км дым 6/0
[Cs]
+20.0 +5.6 39 +22 +22 комфорт 1006.1 956.1 +29.9

 

Местоположение метеостанции Усть-Нюкжа (Амурская область, Россия): широта 56.58 долгота 121.50 высота над уровнем моря 441 м.

В архиве по умолчанию представлена погода в Усть-Нюкже за последнюю неделю. Архивные данные за месяц целиком и за предыдущие месяцы, начиная с января 2011 года, Вы можете получить, выбрав интересующий диапазон дат из раскрывающегося списка и нажав кнопку "Ввод!".


*Определитесь, кто Вы:
робот инопланетянин человек

Внимание! Время в таблицах - всемирное. Для получения местного времени необходимо прибавить поправку, которая равна 9 ч.

Смотрите также архив погоды в соседних городах и на ближайших метеорологических станциях:

Погода в Лопче (Амурская область, Россия) (117 км)
Погода в Средней Олекме (Забайкальский край, Россия) (142 км)
Погода в Удокане (Забайкальский край, Россия) (196 км)
Погода в Чаре (Забайкальский край, Россия) (204 км)
Погода в Нерюнгри (Якутия, Россия) (207 км)
Погода в Суон-Тите (Якутия, Россия) (212 км)
Погода в Нагорном (Якутия, Россия) (215 км)
Погода в Большой Лепринде (Забайкальский край, Россия) (239 км)
Погода в Тынде (Амурская область, Россия) (248 км)
Погода в Тупике (Забайкальский край, Россия) (259 км)

Пояснения к столбцам:

Ветер - указаны скорость ветра в м/с - средняя за 10 мин, порывы в срок и между сроками (в фигурных скобках) и направление, откуда дует ветер: С - северный, СВ - северо-восточный, В - восточный, ЮВ - юго-восточный, Ю - южный, ЮЗ - юго-западный, З - западный, СЗ - северо-западный.
Видимость - горизонтальная дальность видимости в метрах или километрах. При видимости от 1 до 10 км при отсутствии осадков обычно наблюдается дымка, при ухудшении видимости до 1 км и менее - туман. В сухую погоду видимость может ухудшаться дымом, пылью или мглою.
Явления - указаны атмосферные явления, наблюдавшиеся в срок или в последний час перед сроком; фигурными скобками обозначены явления, наблюдавшиеся между сроками (за 1-3 часа до срока); квадратными скобками обозначены град или гололедные отложения с указанием их диаметра в мм.
Облачность - указаны через наклонную черту общая и нижняя облачность в баллах и высота нижней границы облаков в метрах; квадратными скобками обозначены формы облаков: Ci - перистые, Cs - перисто-слоистые, Cc - перисто-кучевые, Ac - высококучевые, As - высокослоистые, Sc - слоисто-кучевые, Ns - слоисто-дождевые, Cu - кучевые, Cb - кучево-дождевые. Подробнее классификацию облаков см. в Атласе облаков (PDF).
T - Температура воздуха - температура, измеренная на высоте 2 м над землей.
Td - Температура точки росы - температура, при понижении до которой содержащийся в воздухе водяной пар достигнет насыщения.
f - Относительная влажность воздуха - влажноcть воздуха, измеренная на высоте 2 м над землей.
Te - Эффективная температура - температура, которую ощущает одетый по сезону человек в тени. Характеристика душности погоды. При расчете учитывается влияние влажности воздуха и скорости ветра на теплоощущения человека.
Tes - Эффективная температура на солнце - температура, которую ощущает человек, с поправкой на солнечный нагрев. Характеристика знойности погоды. Зависит от высоты солнца над горизонтом, облачности и скорости ветра. Ночью, в пасмурную погоду, а также при ветре 12 м/с и более поправка равна нулю.
P - Атмосферное давление - приведенное к уровню моря атмосферное давление.
Po - Атмосферное давление - измеренное на уровне метеостанции атмосферное давление.
Tmin - Минимальная температура - минимум температуры воздуха на высоте 2 м над землей.
Tmax - Максимальная температура - максимум температуры воздуха на высоте 2 м над землей.
R - Количество осадков - Количество выпавших осадков за период времени, мм. При наведении курсора мыши на число - период времени, за который выпало указанное количество осадков.
R24 - Количество осадков - Количество выпавших осадков за 24 часа, мм.
S - Снежный покров - Высота снежного покрова, см. При наведении курсора мыши на число - состояние снежного покрова и степень покрытия местности в баллах.